Date String (YYYY-MM-DD hh:mm:ss) UTC,Instrument flags,absolute air pressure of the measurement (hPa),sample flow rate (lpm),inlet stack bypass flow (lpm),air temperature of the measurement (°C),ambient temperature measured by the external sensor (°C),aerosol sample conditioner tube jacket temperature (°C),OPC LED temperature (°C),internal box temperature (°C),relative humidity of the measurement (%),span deviation,mass concentration of particles derived from Lorenz-Mie calculation of OPC scattering (μg/m³),mass concentration of particles derived from Lorenz-Mie calculation of OPC scattering (μg/m³),mass concentration of particles derived from Lorenz-Mie calculation of OPC scattering (μg/m³)
DateTimeUTC,F1_M11,P_M11,Q1_M11,Q2_M11,T1_M11,T2_M11,T3_M11,T4_M11,T5_M11,U1_M11,ZSPAN_M11,X2_M11,X0_M11,X1_M11
2024-01-22 04:00:00,SystemResetWarning,0822.4,5.00,000.00,022.3,021.1,000.0,030.7,023.7,15.2,0003.1,0003.93,0006.22,0003.72
2024-01-22 04:01:00,SystemResetWarning,0822.4,5.00,000.00,022.3,021.1,000.0,030.7,023.6,15.2,0003.4,0003.98,0006.10,0003.75
2024-01-22 04:02:00,SystemResetWarning,0822.4,5.00,000.00,022.3,021.1,000.0,030.7,023.7,15.2,0003.7,0004.03,0006.20,0003.80
2024-01-22 04:03:00,SystemResetWarning,0822.4,5.00,000.00,022.3,021.1,000.0,030.7,023.7,15.2,0004.1,0004.11,0006.69,0003.86
2024-01-22 04:04:00,SystemResetWarning,0822.4,4.99,000.00,022.3,021.1,000.0,030.7,023.6,15.2,0004.4,0004.20,0006.91,0003.97
2024-01-22 04:05:00,SystemResetWarning,0822.4,5.00,000.00,022.3,021.1,000.0,030.7,023.6,15.3,0004.2,0004.27,0006.99,0004.06
2024-01-22 04:06:00,SystemResetWarning,0822.4,4.99,000.00,022.3,021.1,000.0,030.7,023.6,15.3,0004.3,0004.35,0007.04,0004.15
2024-01-22 04:07:00,SystemResetWarning,0822.4,5.00,000.00,022.3,021.1,000.0,030.7,023.6,15.3,0004.0,0004.46,0007.24,0004.25
2024-01-22 04:08:00,SystemResetWarning,0822.4,5.01,000.00,022.3,021.1,000.0,030.7,023.6,15.3,0004.0,0004.55,0007.35,0004.34
2024-01-22 04:09:00,SystemResetWarning,0822.4,5.01,000.00,022.3,021.1,000.0,030.6,023.6,15.3,0003.8,0004.66,0007.55,0004.44
2024-01-22 04:10:00,SystemResetWarning,0822.4,4.99,000.00,022.3,021.1,000.0,030.6,023.6,15.3,0003.7,0004.76,0007.73,0004.52
2024-01-22 04:11:00,SystemResetWarning,0822.6,4.99,000.00,022.3,021.0,000.0,030.6,023.6,15.3,0003.9,0004.80,0007.71,0004.57
2024-01-22 04:12:00,SystemResetWarning,0822.4,5.01,000.00,022.2,021.0,000.0,030.6,023.6,15.3,0003.0,0004.82,0007.67,0004.61
2024-01-22 04:13:00,SystemResetWarning,0822.4,5.02,000.00,022.2,021.0,000.0,030.6,023.6,15.3,0002.5,0004.86,0007.70,0004.67
2024-01-22 04:14:00,SystemResetWarning,0822.4,5.00,000.00,022.2,021.0,000.0,030.6,023.6,15.3,0003.2,0004.89,0007.55,0004.71
2024-01-22 04:15:00,SystemResetWarning,0822.4,4.99,000.00,022.2,021.0,000.0,030.6,023.6,15.3,0003.0,0004.94,0007.58,0004.74
2024-01-22 04:16:00,SystemResetWarning,0822.4,4.99,000.00,022.2,021.0,000.0,030.6,023.6,15.4,0002.8,0004.95,0007.63,0004.74
2024-01-22 04:17:00,SystemResetWarning,0822.4,5.00,000.00,022.2,021.0,000.0,030.6,023.6,15.4,0002.4,0004.89,0007.78,0004.68
2024-01-22 04:18:00,SystemResetWarning,0822.4,5.00,000.00,022.2,021.0,000.0,030.6,023.5,15.4,0002.5,0004.83,0008.51,0004.61
2024-01-22 04:19:00,SystemResetWarning,0822.4,5.01,000.00,022.2,021.0,000.0,030.6,023.5,15.4,0002.9,0004.78,0008.48,0004.56
2024-01-22 04:20:00,SystemResetWarning,0822.4,5.00,000.00,022.2,021.0,000.0,030.6,023.5,15.4,0003.6,0004.74,0008.39,0004.52
2024-01-22 04:21:00,SystemResetWarning,0822.4,4.99,000.00,022.2,021.0,000.0,030.6,023.5,15.5,0003.3,0004.70,0008.27,0004.50
2024-01-22 04:22:00,SystemResetWarning,0822.4,5.00,000.00,022.2,021.0,000.0,030.6,023.5,15.5,0003.8,0004.73,0008.29,0004.53
2024-01-22 04:23:00,SystemResetWarning,0822.4,5.01,000.00,022.2,020.9,000.0,030.5,023.5,15.5,0004.4,0004.77,0008.36,0004.57
2024-01-22 04:24:00,SystemResetWarning,0822.4,5.00,000.00,022.2,020.9,000.0,030.5,023.5,15.5,0003.6,0004.82,0008.41,0004.62
2024-01-22 04:25:00,SystemResetWarning,0822.4,5.00,000.00,022.2,021.0,000.0,030.5,023.5,15.6,0002.4,0004.84,0008.48,0004.62
2024-01-22 04:26:00,SystemResetWarning,0822.4,4.99,000.00,022.2,021.0,000.0,030.5,023.5,15.6,0000.3,0004.83,0008.46,0004.61
2024-01-22 04:27:00,SystemResetWarning,0822.4,5.00,000.00,022.1,021.0,000.0,030.5,023.5,15.6,0000.0,0004.82,0008.41,0004.62
2024-01-22 04:28:00,SystemResetWarning,0822.4,5.00,000.00,022.1,021.0,000.0,030.5,023.5,15.6,0000.0,0004.87,0008.41,0004.68
2024-01-22 04:29:00,SystemResetWarning,0822.4,5.00,000.00,022.1,020.9,000.0,030.5,023.5,15.5,0000.0,0004.94,0007.55,0004.73
2024-01-22 04:30:00,SystemResetWarning,0822.5,5.00,000.00,022.1,020.9,000.0,030.5,023.5,15.5,0000.0,0004.96,0007.58,0004.73
2024-01-22 04:31:00,SystemResetWarning,0822.4,5.01,000.00,022.1,020.9,000.0,030.5,023.5,15.5,0001.8,0004.97,0007.57,0004.76
2024-01-22 04:32:00,SystemResetWarning,0822.4,5.01,000.00,022.1,020.9,000.0,030.5,023.5,15.5,0002.0,0005.01,0008.17,0004.79
2024-01-22 04:33:00,SystemResetWarning,0822.4,5.00,000.00,022.1,020.9,000.0,030.5,023.5,15.6,0000.0,0005.04,0008.72,0004.80
2024-01-22 04:34:00,SystemResetWarning,0822.4,4.99,000.00,022.1,020.9,000.0,030.5,023.5,15.6,0002.7,0005.04,0008.69,0004.81
2024-01-22 04:35:00,SystemResetWarning,0822.4,5.00,000.00,022.1,020.9,000.0,030.5,023.4,15.6,0005.5,0005.09,0008.82,0004.84
2024-01-22 04:36:00,SystemResetWarning,0822.4,5.00,000.00,022.1,020.9,000.0,030.5,023.4,15.6,0005.4,0005.16,0008.90,0004.92
2024-01-22 04:37:00,SystemResetWarning,0822.4,5.00,000.00,022.1,020.9,000.0,030.5,023.4,15.6,0005.6,0005.23,0008.95,0004.99
2024-01-22 04:38:00,SystemResetWarning,0822.4,5.01,000.00,022.1,020.9,000.0,030.5,023.4,15.6,0005.5,0005.31,0009.05,0005.08
2024-01-22 04:39:00,SystemResetWarning,0822.5,5.00,000.00,022.1,020.9,000.0,030.5,023.4,15.6,0005.3,0005.40,0009.17,0005.16
2024-01-22 04:40:00,SystemResetWarning,0822.5,4.99,000.00,022.1,020.9,000.0,030.4,023.4,15.6,0005.0,0005.54,0009.33,0005.27
2024-01-22 04:41:00,SystemResetWarning,0822.4,5.00,000.00,022.1,020.8,000.0,030.4,023.4,15.6,0004.7,0005.67,0009.46,0005.41
2024-01-22 04:42:00,SystemResetWarning,0822.4,5.01,000.00,022.0,020.8,000.0,030.4,023.3,15.6,0004.8,0005.79,0009.58,0005.53
2024-01-22 04:43:00,SystemResetWarning,0822.4,5.00,000.00,022.0,020.8,000.0,030.4,023.4,15.6,0004.8,0005.91,0009.58,0005.65
2024-01-22 04:44:00,SystemResetWarning,0822.4,5.00,000.00,022.0,020.8,000.0,030.4,023.3,15.6,0004.5,0005.96,0008.78,0005.72
2024-01-22 04:45:00,SystemResetWarning,0822.4,5.00,000.00,022.0,020.8,000.0,030.4,023.3,15.5,0004.1,0006.06,0008.91,0005.81
2024-01-22 04:46:00,SystemResetWarning,0822.4,5.01,000.00,022.0,020.8,000.0,030.4,023.3,15.5,0004.2,0006.11,0009.02,0005.86
2024-01-22 04:47:00,SystemResetWarning,0822.4,4.98,000.00,022.0,020.8,000.0,030.4,023.3,15.6,0004.4,0006.09,0009.18,0005.85
2024-01-22 04:48:00,SystemResetWarning,0822.4,4.99,000.00,022.0,020.8,000.0,030.4,023.3,15.7,0004.0,0006.13,0009.24,0005.89
2024-01-22 04:49:00,SystemResetWarning,0822.4,5.01,000.00,022.0,020.8,000.0,030.4,023.3,15.6,0003.3,0006.17,0009.34,0005.91
2024-01-22 04:50:00,SystemResetWarning,0822.4,5.01,000.00,022.0,020.8,000.0,030.4,023.3,15.6,0002.8,0006.17,0009.36,0005.91
2024-01-22 04:51:00,SystemResetWarning,0822.4,5.01,000.00,022.0,020.8,000.0,030.4,023.3,15.6,0002.7,0006.16,0009.44,0005.90
2024-01-22 04:52:00,SystemResetWarning,0822.4,4.99,000.00,022.0,020.7,000.0,030.3,023.3,15.6,0002.9,0006.14,0009.52,0005.88
2024-01-22 04:53:00,SystemResetWarning,0822.4,4.99,000.00,022.0,020.8,000.0,030.3,023.3,15.6,0002.9,0006.12,0009.65,0005.87
2024-01-22 04:54:00,SystemResetWarning,0822.4,4.99,000.00,022.0,020.7,000.0,030.3,023.3,15.6,0002.9,0006.07,0010.31,0005.82
2024-01-22 04:55:00,SystemResetWarning,0822.5,5.00,000.00,021.9,020.7,000.0,030.3,023.3,15.6,0002.9,0006.04,0010.44,0005.78
2024-01-22 04:56:00,SystemResetWarning,0822.5,5.01,000.00,021.9,020.7,000.0,030.3,023.3,15.6,0003.1,0005.95,0010.33,0005.69
2024-01-22 04:57:00,SystemResetWarning,0822.4,5.00,000.00,021.9,020.7,000.0,030.3,023.3,15.6,0003.3,0005.86,0010.14,0005.62
2024-01-22 04:58:00,SystemResetWarning,0822.4,5.00,000.00,021.9,020.7,000.0,030.3,023.3,15.6,0003.5,0005.82,0009.86,0005.57
2024-01-22 04:59:00,SystemResetWarning,0822.4,5.00,000.00,021.9,020.7,000.0,030.3,023.2,15.6,0003.6,0005.75,0009.78,0005.49
